Location: Rounton
(54.4000°N, 1.3500°W)
Time: 04:56:28
(UTC+00:00)

A-11 Canister half - Pass Details

Date: 30 November 2021
Orbit: 1524 x 1684 km, 47.3° (Epoch: 17 January)

Event Time Altitude Azimuth Distance (km) Brightness Sun altitude
Exits shadow 02:45:20 35° 130° (SE) 2,463 10.0 -44.2°
Drops below altitude 10° 02:52:34 10° 86° (E) 3,884 11.6 -43.2°
Sets 02:55:58 0° 78° (ENE) 4,851 12.4 -42.8°
